Talkeetna, AK

5:47 PM AKST on January 18, 2017 (GMT -0900)
Talkeetna

Weather History for PATK - September, 2012

Change the Weather History Date:

Friday, September 7, 2012

  Actual Average Record
Temperature  
Mean Temperature 46 °F -  
Max Temperature 53 °F 59 °F 70 °F (1963)
Min Temperature 37 °F 39 °F 27 °F (1983)
Degree Days  
Heating Degree Days 19    
Moisture  
Dew Point 39 °F    
Average Humidity 81    
Maximum Humidity 100    
Minimum Humidity 57    
Precipitation  
Precipitation 0.03 in - - ()
Sea Level Pressure  
Sea Level Pressure 30.03 in    
Wind  
Wind Speed 3 mph (East)    
Max Wind Speed 7 mph    
Max Gust Speed -    
Visibility 10 miles    
Events Rain    
Averages and records for this station are not official NWS values.
T = Trace of Precipitation, MM = Missing Value Source: NWS Daily Summary

Daily Weather History Graph

Daily Weather History Graph

Search for Another Location

Airport or City:

Trip Planner

Search our weather history database for the weather conditions in past years. The results will help you decide how hot, cold, wet, or windy it might be!

Date:

Astronomy

Sep. 07, 2012 Rise Set
Actual Time 7:06 AM AKDT 8:48 PM AKDT
Civil Twilight 6:19 AM AKDT 9:34 PM AKDT
Nautical Twilight 5:18 AM AKDT 10:35 PM AKDT
Astronomical Twilight 3:59 AM AKDT 11:51 PM AKDT
Moon 10:28 PM AKDT (9/7) 4:30 PM AKDT (9/7)
Length of Visible Light 15h 15m
Length of Day
13h 41m
Waning Gibbous, 57% of the Moon is Illuminated
Sep 7
Waning Gibbous
Sep 8
Last Quarter
Sep 15
New
Sep 22
First Quarter
Sep 29
Full

Hourly Weather History & Observations

Time (AKDT) Temp. Windchill Dew Point Humidity Pressure Visibility Wind Dir Wind Speed Gust Speed Precip Events Conditions
12:53 AM 46.9 °F - 37.9 °F 71% 30.14 in 10.0 mi SSE 3.5 mph - N/A   Overcast
1:53 AM 46.9 °F - 37.0 °F 68% 30.13 in 10.0 mi SSE 5.8 mph - N/A   Overcast
2:53 AM 46.0 °F 44.8 °F 37.0 °F 71% 30.12 in 10.0 mi South 3.5 mph - N/A   Mostly Cloudy
3:53 AM 46.0 °F 43.9 °F 37.0 °F 71% 30.12 in 10.0 mi SSE 4.6 mph - N/A   Overcast
4:41 AM 46.4 °F 44.3 °F 37.4 °F 71% 30.09 in 10.0 mi SSE 4.6 mph - N/A   Mostly Cloudy
4:53 AM 46.0 °F - 37.0 °F 71% 30.10 in 10.0 mi Calm Calm - N/A   Overcast
5:18 AM 44.6 °F - 41.0 °F 87% 30.08 in 10.0 mi Calm Calm - N/A   Overcast
5:53 AM 42.1 °F - 39.9 °F 92% 30.09 in 10.0 mi Calm Calm - N/A   Overcast
6:53 AM 42.1 °F - 39.9 °F 92% 30.09 in 10.0 mi Calm Calm - N/A   Overcast
7:53 AM 43.0 °F 41.3 °F 39.9 °F 89% 30.08 in 10.0 mi South 3.5 mph - 0.00 in   Overcast
8:53 AM 43.0 °F - 41.0 °F 93% 30.08 in 10.0 mi Calm Calm - 0.01 in Rain Light Rain
9:01 AM 42.8 °F - 41.0 °F 93% 30.06 in 10.0 mi Calm Calm - 0.01 in Rain Light Rain
9:24 AM 42.8 °F 41.1 °F 42.8 °F 100% 30.06 in 10.0 mi NE 3.5 mph - 0.02 in Rain Light Rain
9:53 AM 44.1 °F 42.5 °F 42.1 °F 93% 30.08 in 10.0 mi NE 3.5 mph - 0.02 in   Overcast
10:53 AM 45.0 °F 41.8 °F 43.0 °F 93% 30.07 in 10.0 mi East 5.8 mph - 0.01 in   Overcast
11:53 AM 46.9 °F - 41.0 °F 80% 30.06 in 10.0 mi ENE 3.5 mph - N/A   Overcast
12:53 PM 48.0 °F - 41.0 °F 77% 30.04 in 10.0 mi NE 5.8 mph - 0.00 in   Mostly Cloudy
1:53 PM 50.0 °F - 39.0 °F 66% 30.01 in 10.0 mi Calm Calm - N/A   Clear
2:53 PM 52.0 °F - 37.0 °F 57% 29.99 in 10.0 mi NW 3.5 mph - N/A   Partly Cloudy
3:53 PM 46.9 °F - 39.0 °F 74% 29.98 in 10.0 mi West 4.6 mph - N/A   Mostly Cloudy
4:53 PM 46.9 °F - 39.0 °F 74% 29.97 in 10.0 mi Calm Calm - 0.00 in   Overcast
5:53 PM 48.0 °F - 41.0 °F 77% 29.96 in 10.0 mi NNE 6.9 mph - N/A   Overcast
6:53 PM 46.9 °F - 39.9 °F 77% 29.95 in 10.0 mi NNE 4.6 mph - N/A   Overcast
7:53 PM 45.0 °F 42.6 °F 39.0 °F 80% 29.93 in 10.0 mi NNE 4.6 mph - N/A   Mostly Cloudy
8:53 PM 44.1 °F - 39.9 °F 85% 29.93 in 10.0 mi Calm Calm - N/A   Mostly Cloudy
9:53 PM 41.0 °F - 39.0 °F 93% 29.93 in 10.0 mi Calm Calm - N/A   Overcast
10:53 PM 39.9 °F - 39.0 °F 97% 29.92 in 10.0 mi Calm Calm - N/A   Clear
11:53 PM 37.9 °F - 37.0 °F 97% 29.92 in 10.0 mi Calm Calm - N/A   Mostly Cloudy